Location: Newark
(34.6283°N, 36.0776°E)
Time: 22:44:49
(UTC+00:00)

Tiros 1 despin weight - Pass Details

Date: 25 September 2019
Orbit: 594 x 643 km, 48.2° (Epoch: 16 October)

Event Time Altitude Azimuth Distance (km) Brightness Sun altitude
Rises 06:58:19 0° 222° (SW) 2,914 ? 40.3°
Reaches altitude 10° 07:00:40 10° 218° (SW) 2,002 ? 40.7°
Maximum altitude 07:05:12 60° 139° (SE) 713 ? 41.4°
Drops below altitude 10° 07:09:42 10° 59° (ENE) 1,982 ? 42.1°
Sets 07:12:01 0° 56° (NE) 2,881 ? 42.5°
